Waarnemingen

Advertentie
Mijn weer
La Hague, Frankrijk (7020): temperatuur & dauwpunt: 18.05.2019 17:00:00 - 24.05.2019 17:00:00 (CEST)La Hague, Frankrijk (7020): windsnelheid & windstoten: 18.05.2019 17:00:00 - 24.05.2019 17:00:00 (CEST)La Hague, Frankrijk (7020): windrichting: 18.05.2019 17:00:00 - 24.05.2019 17:00:00 (CEST)La Hague, Frankrijk (7020): luchtdruk: 18.05.2019 17:00:00 - 24.05.2019 17:00:00 (CEST)La Hague, Frankrijk (7020): zicht: 18.05.2019 17:00:00 - 24.05.2019 17:00:00 (CEST)La Hague, Frankrijk (7020): neerslag: 18.05.2019 17:00:00 - 24.05.2019 17:00:00 (CEST)
Datum & Tijd tt [°C] td [°C] ff [km/u] ff [kn] fx [km/u] fx [kn] dd ppp [hPa] vv [km] rr [mm]
24.05.2019 17:00:00 15,4 12,0 12 7 19 10 WNW 1019,4 16 0,0
24.05.2019 16:00:00 15,4 12,2 14 8 22 12 WNW 1019,7 - 0,0
24.05.2019 15:00:00 14,9 11,7 18 10 23 13 WNW 1019,7 - 0,0
24.05.2019 14:00:00 14,2 11,0 16 9 25 14 WNW 1019,7 16 0,0
24.05.2019 13:00:00 14,0 10,8 18 10 23 13 WNW 1019,7 - 0,0
24.05.2019 12:00:00 14,4 11,0 18 10 27 15 NW 1019,5 - 0,0
24.05.2019 11:00:00 14,3 10,7 21 11 29 16 NW 1019,4 20 0,0
24.05.2019 10:00:00 14,0 10,8 19 10 26 14 NW 1019,0 - 0,0
24.05.2019 09:00:00 13,2 10,4 20 11 27 14 NNW 1018,5 - 0,0
24.05.2019 08:00:00 12,6 10,1 18 10 26 14 NNW 1018,3 16 0,0
24.05.2019 07:00:00 12,1 9,8 17 9 25 13 NNW 1018,0 - 0,0
24.05.2019 06:00:00 11,8 9,4 18 10 26 14 NW 1017,8 - 0,0
24.05.2019 05:00:00 11,8 9,4 19 11 26 14 NW 1017,4 12 0,0
24.05.2019 04:00:00 12,1 9,8 13 7 19 11 NW 1017,6 - 0,0
24.05.2019 03:00:00 12,3 9,8 14 7 21 11 NW 1017,5 - 0,0
24.05.2019 02:00:00 12,2 9,4 5 3 15 8 WNW 1017,8 12 0,0
24.05.2019 01:00:00 12,2 9,6 10 6 21 11 ZW 1017,8 - 0,0
24.05.2019 00:00:00 12,4 9,9 14 7 22 12 WZW 1017,6 - 0,0
23.05.2019 23:00:00 12,4 9,9 11 6 19 10 ZW 1017,5 12 0,0
23.05.2019 22:00:00 12,8 10,5 13 7 24 13 W 1017,3 - 0,0
23.05.2019 21:00:00 12,9 10,3 15 8 21 11 W 1017,1 - 0,0
23.05.2019 20:00:00 13,5 10,3 13 7 21 11 W 1017,0 14 0,0
23.05.2019 19:00:00 13,0 10,0 14 8 18 10 WZW 1017,2 - 0,0
23.05.2019 18:00:00 13,8 10,2 12 6 17 9 WZW 1017,4 - 0,0
23.05.2019 17:00:00 13,6 9,8 13 7 18 10 W 1017,6 12 0,0
23.05.2019 16:00:00 13,9 10,3 10 5 21 11 W 1017,7 - 0,0
23.05.2019 15:00:00 13,7 9,7 17 9 21 11 WZW 1017,8 - 0,0
23.05.2019 14:00:00 14,6 11,0 15 8 21 12 WZW 1017,8 12 0,0
23.05.2019 13:00:00 14,9 11,3 16 9 22 12 WZW 1018,0 - 0,0
23.05.2019 12:00:00 15,0 11,2 15 8 22 12 ZZW 1017,9 - 0,0
23.05.2019 11:00:00 15,0 10,6 16 9 26 14 ZW 1017,7 12 0,0
23.05.2019 10:00:00 14,8 10,6 19 11 25 13 ZZW 1017,5 - 0,0
23.05.2019 09:00:00 15,0 11,0 18 10 29 16 ZZW 1017,2 - 0,0
23.05.2019 08:00:00 14,1 10,3 19 10 29 16 ZZW 1016,9 - 0,0
23.05.2019 07:00:00 13,2 8,7 20 11 28 15 Z 1016,6 - 0,0
23.05.2019 06:00:00 10,9 5,8 4 2 10 6 OZO 1016,8 - 0,0
23.05.2019 05:00:00 10,8 5,5 8 4 18 10 O 1017,0 12 0,0
23.05.2019 04:00:00 9,9 4,7 15 8 17 9 OZO 1017,3 - 0,0
23.05.2019 03:00:00 10,3 5,1 14 8 16 9 OZO 1017,9 - 0,0
23.05.2019 02:00:00 10,5 5,5 13 7 15 8 OZO 1018,5 16 0,0
23.05.2019 01:00:00 11,1 5,6 3 1 14 7 Z 1019,0 - 0,0
23.05.2019 00:00:00 11,6 6,3 11 6 13 7 OZO 1019,2 - 0,0
22.05.2019 23:00:00 10,7 5,0 11 6 16 9 OZO 1019,4 16 0,0
22.05.2019 22:00:00 11,3 5,4 13 7 17 9 OZO 1019,4 - 0,0
22.05.2019 21:00:00 14,3 7,1 12 7 22 12 O 1019,2 - 0,0
22.05.2019 20:00:00 15,5 7,5 16 9 22 12 O 1019,4 16 0,0
22.05.2019 19:00:00 16,2 6,3 13 7 17 9 O 1019,6 - 0,0
22.05.2019 18:00:00 16,7 8,4 5 3 11 6 WNW 1020,0 - 0,0
22.05.2019 17:00:00 16,1 7,6 9 5 14 8 WZW 1020,4 - 0,0
22.05.2019 16:00:00 15,5 7,5 12 6 16 9 ZW 1020,8 - 0,0
22.05.2019 15:00:00 15,8 9,0 12 7 17 9 ZW 1021,1 - 0,0
22.05.2019 14:00:00 15,5 10,0 11 6 17 9 ZW 1021,3 16 0,0
22.05.2019 13:00:00 15,1 9,7 13 7 21 11 ZW 1021,5 - 0,0
22.05.2019 12:00:00 14,3 9,3 16 8 26 14 ZW 1021,5 - 0,0
22.05.2019 11:00:00 14,1 9,5 18 10 26 14 ZZW 1021,2 12 0,0
22.05.2019 10:00:00 13,9 10,7 15 8 21 11 ZZW 1020,9 - 0,0
22.05.2019 09:00:00 12,9 9,9 11 6 16 9 ZZW 1020,7 - 0,0
22.05.2019 08:00:00 11,9 9,3 10 5 17 9 ZW 1020,6 - 0,0
22.05.2019 07:00:00 10,7 8,3 12 7 16 9 ZZW 1020,3 - 0,0
22.05.2019 06:00:00 9,4 6,8 12 7 14 8 ZZW 1020,3 - 0,0
22.05.2019 05:00:00 9,9 7,1 13 7 16 9 ZZW 1020,4 10 0,0
22.05.2019 04:00:00 10,8 7,8 10 6 15 8 ZW 1020,6 - 0,0
22.05.2019 03:00:00 10,3 7,7 12 6 16 9 ZZW 1020,8 - 0,0
22.05.2019 02:00:00 10,8 8,0 7 4 15 8 ZW 1020,9 12 0,0
22.05.2019 01:00:00 12,0 9,2 13 7 18 10 WNW 1021,0 - 0,0
22.05.2019 00:00:00 10,7 7,4 6 3 11 6 W 1020,9 - 0,0
21.05.2019 23:00:00 10,2 6,7 7 4 9 5 ZW 1020,8 10 0,0
21.05.2019 22:00:00 11,6 7,9 5 3 9 5 WZW 1020,5 - 0,0
21.05.2019 21:00:00 13,9 8,7 5 3 9 5 WNW 1020,3 - 0,0
21.05.2019 20:00:00 14,3 9,9 5 3 9 5 WNW 1020,3 14 0,0
21.05.2019 19:00:00 14,6 10,2 6 4 10 6 NW 1020,3 - 0,0
21.05.2019 18:00:00 14,8 10,6 6 4 10 6 NNW 1020,3 - 0,0
21.05.2019 17:00:00 14,5 10,5 6 4 11 6 N 1020,2 - 0,0
21.05.2019 16:00:00 14,7 10,3 8 4 11 6 NNO 1020,5 - 0,0
21.05.2019 15:00:00 14,5 10,5 8 5 14 8 NNO 1020,2 - 0,0
21.05.2019 14:00:00 14,0 10,0 10 6 13 7 N 1020,0 14 0,0
21.05.2019 13:00:00 14,1 9,7 10 5 14 7 NNO 1020,0 - 0,0
21.05.2019 12:00:00 14,1 10,3 10 6 14 8 NNO 1019,7 - 0,0
21.05.2019 11:00:00 13,9 10,3 10 5 15 8 NNO 1019,3 10 0,0
21.05.2019 10:00:00 13,5 10,7 10 5 14 8 N 1019,0 - 0,0
21.05.2019 09:00:00 13,0 10,7 7 4 11 6 N 1018,5 - 0,0
21.05.2019 08:00:00 12,4 10,8 6 3 8 5 WZW 1018,0 10 0,0
21.05.2019 07:00:00 10,4 8,8 8 4 13 7 ZW 1017,6 - 0,0
21.05.2019 06:00:00 9,5 7,6 11 6 13 7 ZZW 1017,2 - 0,0
21.05.2019 05:00:00 10,0 8,3 8 5 11 6 ZW 1017,1 10 0,0
21.05.2019 04:00:00 9,9 8,0 10 5 12 6 ZW 1016,9 - 0,0
21.05.2019 03:00:00 10,0 8,1 9 5 12 6 ZW 1016,6 - 0,0
21.05.2019 02:00:00 10,0 8,1 7 4 12 7 ZW 1016,8 10 0,0
21.05.2019 01:00:00 10,7 8,8 9 5 12 7 ZW 1016,6 - 0,0
21.05.2019 00:00:00 11,3 9,4 8 4 10 6 WZW 1016,6 - 0,0
20.05.2019 23:00:00 11,8 9,9 6 4 11 6 W 1016,6 6 0,0
20.05.2019 22:00:00 11,9 9,6 8 4 11 6 W 1016,0 - 0,0
20.05.2019 21:00:00 12,7 9,9 6 3 10 5 W 1015,5 - 0,0
20.05.2019 20:00:00 13,5 10,3 6 3 10 6 W 1015,2 6 0,0
20.05.2019 19:00:00 14,1 10,9 8 4 11 6 W 1014,9 - 0,0
20.05.2019 18:00:00 14,7 11,1 6 3 9 5 WNW 1014,7 - 0,0
20.05.2019 17:00:00 14,2 11,2 5 3 10 5 N 1014,6 8 0,0
20.05.2019 16:00:00 13,7 10,5 5 3 11 6 N 1014,6 - 0,0
20.05.2019 15:00:00 14,1 11,1 7 4 11 6 N 1014,3 - 0,0
20.05.2019 14:00:00 14,5 12,0 8 4 11 6 N 1014,1 6 0,0
20.05.2019 13:00:00 13,3 11,2 9 5 12 6 NNO 1014,0 - 0,0
20.05.2019 12:00:00 13,2 11,3 8 5 11 6 NNW 1013,8 - 0,0
20.05.2019 11:00:00 13,2 11,4 8 4 10 5 NW 1013,4 10 0,0
20.05.2019 10:00:00 12,9 11,3 3 2 8 4 WNW 1013,1 - 0,0
20.05.2019 09:00:00 12,8 11,2 4 2 9 5 W 1012,5 - 0,0
20.05.2019 08:00:00 12,5 11,1 5 3 8 5 WZW 1011,9 8 0,0
20.05.2019 07:00:00 11,5 10,1 4 2 8 4 ZW 1011,6 - 0,0
20.05.2019 06:00:00 11,0 9,4 3 2 5 3 ZW 1011,5 - 0,0
20.05.2019 05:00:00 11,3 9,7 0 0 6 3 N 1011,3 8 0,0
20.05.2019 04:00:00 11,4 9,8 2 1 8 5 WZW 1011,3 - 0,0
20.05.2019 03:00:00 11,3 9,6 6 3 9 5 ZW 1011,4 - 0,0
20.05.2019 02:00:00 11,3 9,6 0 0 5 3 N 1011,6 8 0,0
20.05.2019 01:00:00 11,3 9,6 4 2 6 3 ZW 1011,8 - 0,0
20.05.2019 00:00:00 11,5 9,6 5 3 8 4 WZW 1011,9 - 0,0
19.05.2019 23:00:00 12,0 10,1 5 3 11 6 W 1011,8 8 0,0
19.05.2019 22:00:00 12,0 10,2 6 3 11 6 W 1011,5 - 0,0
19.05.2019 21:00:00 12,1 10,2 9 5 11 6 WZW 1011,0 - 0,0
19.05.2019 20:00:00 12,3 10,2 3 1 5 3 WZW 1010,8 4,0 0,0
19.05.2019 19:00:00 12,5 10,4 4 2 7 4 WNW 1010,6 - 0,0
19.05.2019 18:00:00 12,6 10,5 4 2 10 5 WNW 1010,7 - 0,0
19.05.2019 17:00:00 12,8 10,7 6 3 9 5 WNW 1010,8 4,0 0,0
19.05.2019 16:00:00 12,7 10,6 6 3 10 5 NW 1010,8 - 0,0
19.05.2019 15:00:00 12,5 10,6 6 4 9 5 WNW 1010,6 - 0,0
19.05.2019 14:00:00 12,6 10,7 6 4 9 5 NW 1010,5 3,0 0,0
19.05.2019 13:00:00 12,5 10,7 5 3 8 4 NNW 1010,1 - 0,0
19.05.2019 12:00:00 12,4 10,6 7 4 11 6 NNO 1009,9 - 0,0
19.05.2019 11:00:00 12,5 10,7 9 5 18 10 NNO 1009,7 3,0 0,0
19.05.2019 10:00:00 12,0 10,2 14 8 19 11 NNO 1009,4 - 0,0
19.05.2019 09:00:00 11,9 10,1 13 7 16 9 N 1009,0 - 0,0
19.05.2019 08:00:00 11,6 10,2 13 7 16 9 NNW 1008,9 10 0,0
19.05.2019 07:00:00 11,3 9,9 9 5 11 6 WNW 1008,6 - 0,0
19.05.2019 06:00:00 9,1 7,7 5 3 10 5 WZW 1008,5 - 0,0
19.05.2019 05:00:00 9,1 7,7 8 5 10 5 ZZW 1008,4 10 0,0
19.05.2019 04:00:00 8,9 7,3 7 4 9 5 ZW 1008,5 - 0,0
19.05.2019 03:00:00 9,2 7,6 4 2 6 4 ZZW 1008,5 - 0,0
19.05.2019 02:00:00 9,7 7,8 4 2 9 5 WNW 1008,7 10 0,0
19.05.2019 01:00:00 11,3 9,6 8 4 13 7 NW 1008,7 - 0,0
19.05.2019 00:00:00 11,5 9,7 9 5 12 6 WNW 1008,8 - 0,0
18.05.2019 23:00:00 11,6 9,5 5 3 10 5 WNW 1008,8 10 0,0
18.05.2019 22:00:00 11,8 9,2 6 4 10 5 WNW 1008,5 - 0,0
18.05.2019 21:00:00 12,3 8,8 8 4 11 6 WNW 1008,3 - 0,0
18.05.2019 20:00:00 13,7 9,3 5 3 8 5 NNW 1007,8 10 0,0
18.05.2019 19:00:00 14,1 9,5 5 3 10 5 NNW 1007,5 - 0,0
18.05.2019 18:00:00 13,7 9,1 7 4 10 6 N 1007,2 - 0,0
18.05.2019 17:00:00 14,0 9,6 9 5 13 7 N 1007,2 12 0,0

tt = temperatuur
td = dauwpunt
ff = windsnelheid
fx = windstoten
dd = windrichting
ppp = luchtdruk
vv = zicht
rr = neerslag

Weerstations in de omgeving